Hourly Weather Cernavoda

Today, 16 June, Wednesday

Time Temperature Precipitation Wind Pressure Humidity
00:00 +16°C° 0.1 mm 5 mps 753 mmHg 96%
01:00 +16°C° 0.1 mm 5 mps 753 mmHg 95%
02:00 +16°C° 0.1 mm 5 mps 753 mmHg 95%
03:00 +16°C° 0.1 mm 5 mps 753 mmHg 95%
04:00 +16°C° 0.1 mm 6 mps 754 mmHg 95%
05:00 +16°C° 0.1 mm 6 mps 754 mmHg 94%
06:00 +17°C° 0 mm 6 mps 754 mmHg 92%
07:00 +17°C° 0 mm 7 mps 755 mmHg 90%
08:00 +18°C° 0 mm 7 mps 755 mmHg 88%
09:00 +20°C° 0.3 mm 7 mps 755 mmHg 84%
10:00 +20°C° 0.3 mm 7 mps 755 mmHg 81%
11:00 +21°C° 0.3 mm 7 mps 756 mmHg 77%
12:00 +22°C° 0.4 mm 7 mps 756 mmHg 76%
13:00 +22°C° 0.4 mm 7 mps 756 mmHg 74%
14:00 +23°C° 0.4 mm 7 mps 756 mmHg 72%
15:00 +23°C° 0.4 mm 6 mps 756 mmHg 72%
16:00 +22°C° 0.4 mm 5 mps 756 mmHg 72%
17:00 +22°C° 0.4 mm 5 mps 756 mmHg 72%
18:00 +21°C° 0.5 mm 4 mps 757 mmHg 77%
19:00 +20°C° 0.5 mm 3 mps 757 mmHg 82%
20:00 +18°C° 0.5 mm 2 mps 758 mmHg 87%
21:00 +18°C° 0 mm 2 mps 758 mmHg 89%
22:00 +18°C° 0 mm 2 mps 758 mmHg 91%
23:00 +18°C° 0 mm 2 mps 758 mmHg 92%

Tomorrow, 17 June, Thursday

Time Temperature Precipitation Wind Pressure Humidity
00:00 +18°C° 0.2 mm 3 mps 758 mmHg 93%
01:00 +18°C° 0.2 mm 3 mps 758 mmHg 94%
02:00 +17°C° 0.2 mm 3 mps 758 mmHg 95%
03:00 +17°C° 0 mm 3 mps 758 mmHg 95%
04:00 +17°C° 0 mm 3 mps 758 mmHg 95%
05:00 +17°C° 0 mm 3 mps 759 mmHg 95%
06:00 +18°C° 0.1 mm 3 mps 759 mmHg 92%
07:00 +19°C° 0.1 mm 4 mps 759 mmHg 88%
08:00 +20°C° 0.1 mm 4 mps 760 mmHg 85%
09:00 +21°C° 0.1 mm 4 mps 760 mmHg 81%
10:00 +22°C° 0.1 mm 5 mps 760 mmHg 76%
11:00 +23°C° 0.1 mm 5 mps 760 mmHg 72%
12:00 +25°C° 0.1 mm 4 mps 760 mmHg 67%
13:00 +26°C° 0.1 mm 4 mps 760 mmHg 62%
14:00 +27°C° 0.1 mm 4 mps 759 mmHg 56%
15:00 +27°C° 0.2 mm 4 mps 759 mmHg 59%
16:00 +26°C° 0.2 mm 4 mps 759 mmHg 61%
17:00 +26°C° 0.2 mm 4 mps 759 mmHg 64%
18:00 +23°C° 0.2 mm 4 mps 760 mmHg 71%
19:00 +22°C° 0.2 mm 3 mps 760 mmHg 77%
20:00 +21°C° 0.2 mm 3 mps 760 mmHg 84%
21:00 +20°C° 0 mm 3 mps 760 mmHg 86%
22:00 +20°C° 0 mm 3 mps 760 mmHg 88%
23:00 +19°C° 0 mm 3 mps 760 mmHg 91%

Day after tomorrow, 18 June, Friday

Time Temperature Precipitation Wind Pressure Humidity
00:00 +19°C° 0 mm 3 mps 760 mmHg 92%
01:00 +19°C° 0 mm 4 mps 760 mmHg 93%
02:00 +19°C° 0 mm 4 mps 759 mmHg 94%
03:00 +19°C° 0.5 mm 4 mps 759 mmHg 95%
04:00 +19°C° 0.5 mm 4 mps 759 mmHg 95%
05:00 +19°C° 0.5 mm 4 mps 759 mmHg 96%
06:00 +19°C° 0.8 mm 4 mps 759 mmHg 96%
07:00 +19°C° 0.8 mm 4 mps 759 mmHg 95%
08:00 +20°C° 0.8 mm 4 mps 759 mmHg 95%
09:00 +21°C° 0.5 mm 5 mps 759 mmHg 89%
10:00 +22°C° 0.5 mm 5 mps 759 mmHg 83%
11:00 +23°C° 0.5 mm 5 mps 759 mmHg 77%
12:00 +25°C° 0.6 mm 5 mps 759 mmHg 72%
13:00 +26°C° 0.6 mm 4 mps 759 mmHg 67%
14:00 +27°C° 0.6 mm 4 mps 758 mmHg 63%
15:00 +26°C° 1 mm 4 mps 758 mmHg 66%
16:00 +26°C° 1 mm 4 mps 758 mmHg 69%
17:00 +25°C° 1 mm 3 mps 758 mmHg 72%
18:00 +24°C° 0.8 mm 3 mps 758 mmHg 77%
19:00 +22°C° 0.8 mm 3 mps 758 mmHg 82%
20:00 +21°C° 0.8 mm 3 mps 757 mmHg 88%
21:00 +20°C° 0.2 mm 3 mps 758 mmHg 90%
22:00 +20°C° 0.2 mm 3 mps 758 mmHg 92%
23:00 +19°C° 0.2 mm 3 mps 758 mmHg 95%

19 June, Saturday

Time Temperature Precipitation Wind Pressure Humidity
00:00 +19°C° 0.1 mm 3 mps 758 mmHg 95%
01:00 +19°C° 0.1 mm 3 mps 758 mmHg 96%
02:00 +19°C° 0.1 mm 3 mps 758 mmHg 96%
03:00 +19°C° 0.9 mm 3 mps 758 mmHg 96%
04:00 +19°C° 0.9 mm 4 mps 758 mmHg 97%
05:00 +19°C° 0.9 mm 4 mps 758 mmHg 97%
06:00 +19°C° 2 mm 4 mps 758 mmHg 96%
07:00 +19°C° 2 mm 5 mps 758 mmHg 95%
08:00 +19°C° 2 mm 5 mps 758 mmHg 94%
09:00 +20°C° 0.8 mm 5 mps 758 mmHg 89%
10:00 +21°C° 0.8 mm 5 mps 759 mmHg 85%
11:00 +22°C° 0.8 mm 5 mps 759 mmHg 80%
12:00 +22°C° 1.3 mm 6 mps 759 mmHg 82%
13:00 +21°C° 1.3 mm 7 mps 759 mmHg 85%
14:00 +21°C° 1.3 mm 8 mps 759 mmHg 87%
15:00 +21°C° 0.6 mm 7 mps 759 mmHg 87%
16:00 +20°C° 0.6 mm 6 mps 759 mmHg 87%
17:00 +20°C° 0.6 mm 6 mps 759 mmHg 88%
18:00 +20°C° 0.1 mm 5 mps 759 mmHg 89%
19:00 +19°C° 0.1 mm 4 mps 760 mmHg 90%
20:00 +19°C° 0.1 mm 4 mps 760 mmHg 92%
21:00 +19°C° 0.1 mm 3 mps 760 mmHg 92%
22:00 +19°C° 0.1 mm 3 mps 760 mmHg 92%
23:00 +18°C° 0.1 mm 3 mps 760 mmHg 92%

20 June, Sunday

Time Temperature Precipitation Wind Pressure Humidity
00:00 +18°C° 0 mm 3 mps 760 mmHg 91%
01:00 +18°C° 0 mm 2 mps 760 mmHg 90%
02:00 +18°C° 0 mm 2 mps 760 mmHg 90%
03:00 +18°C° 0 mm 2 mps 760 mmHg 90%
04:00 +18°C° 0 mm 2 mps 759 mmHg 90%
05:00 +18°C° 0 mm 2 mps 759 mmHg 90%
06:00 +19°C° 0 mm 3 mps 759 mmHg 88%
07:00 +20°C° 0 mm 3 mps 759 mmHg 85%
08:00 +21°C° 0 mm 4 mps 759 mmHg 82%
09:00 +22°C° 0.2 mm 3 mps 759 mmHg 78%
10:00 +25°C° 0.2 mm 3 mps 759 mmHg 74%
11:00 +26°C° 0.2 mm 3 mps 759 mmHg 69%
12:00 +27°C° 0.9 mm 3 mps 759 mmHg 67%
13:00 +28°C° 0.9 mm 3 mps 758 mmHg 65%
14:00 +28°C° 0.9 mm 3 mps 758 mmHg 63%
15:00 +28°C° 0.8 mm 3 mps 758 mmHg 64%
16:00 +28°C° 0.8 mm 2 mps 758 mmHg 65%
17:00 +28°C° 0.8 mm 2 mps 757 mmHg 66%
18:00 +26°C° 1.2 mm 2 mps 757 mmHg 73%
19:00 +24°C° 1.2 mm 2 mps 757 mmHg 79%
20:00 +23°C° 1.2 mm 2 mps 757 mmHg 86%
21:00 +22°C° 1.4 mm 1 mps 758 mmHg 88%
22:00 +22°C° 1.4 mm 1 mps 758 mmHg 90%
23:00 +21°C° 1.4 mm 1 mps 758 mmHg 92%

21 June, Monday

Time Temperature Precipitation Wind Pressure Humidity
00:00 +21°C° 0 mm 1 mps 758 mmHg 93%
01:00 +21°C° 0 mm 1 mps 757 mmHg 93%
02:00 +20°C° 0 mm 1 mps 757 mmHg 94%
03:00 +20°C° 0 mm 1 mps 757 mmHg 94%
04:00 +20°C° 0 mm 1 mps 757 mmHg 95%
05:00 +20°C° 0 mm 1 mps 757 mmHg 95%
06:00 +21°C° 0 mm 1 mps 757 mmHg 90%
07:00 +23°C° 0 mm 2 mps 758 mmHg 85%
08:00 +24°C° 0 mm 2 mps 758 mmHg 80%
09:00 +26°C° 0 mm 2 mps 758 mmHg 75%
10:00 +27°C° 0 mm 2 mps 757 mmHg 69%
11:00 +28°C° 0 mm 2 mps 757 mmHg 63%
12:00 +29°C° 0.2 mm 2 mps 757 mmHg 61%
13:00 +29°C° 0.2 mm 1 mps 757 mmHg 59%
14:00 +29°C° 0.2 mm 1 mps 756 mmHg 57%
15:00 +29°C° 0.5 mm 1 mps 756 mmHg 59%
16:00 +29°C° 0.5 mm 1 mps 756 mmHg 61%
17:00 +29°C° 0.5 mm 1 mps 756 mmHg 63%
18:00 +27°C° 0.3 mm 1 mps 756 mmHg 68%
19:00 +26°C° 0.3 mm 1 mps 756 mmHg 73%
20:00 +25°C° 0.3 mm 1 mps 756 mmHg 78%
21:00 +24°C° 0 mm 1 mps 756 mmHg 80%
22:00 +24°C° 0 mm 1 mps 756 mmHg 81%
23:00 +23°C° 0 mm 1 mps 757 mmHg 83%
Show more

We Need Your Consent

Meteoprog and our Service Providers may store and access personal data such as cookies, device identifiers or other similar technologies on your device and process such data to personalise content and ads, as well as provide social media features and to analyse the traffic.

  • Store and/or access information on your device

    Cookies, device identifiers or other information can be stored or accessed on your device for the purposes indicated above.

  • Personalised ads and content, ad and content measurement, audience insights, and products development

    Ads and content can be personalised based on a profile. More data can be added to better personalise ads and content. Ad and content performance can be measured. Insights about the audience who saw the ads and content can be derived. Such data can be used to develop or improve user’s experience, systems and software.

By clicking ‘I Agree’ you will allow the use of indicated cookies, device identifiers, web beacons or other similar technologies. Your settings can be changed in the browser on your device.

For certain purposes, legitimate interests may be relied on, rather than consent. You can read more about this in our Privacy and Cookie Policy.